User: anonymous   Login
Location: Unspecified
(0.0000°N, 0.0000°E)
Time: 07:13:49
(UTC+01:00)
Language:

Orbus 21S - Orbit

View from above orbital plane
View from above orbital plane
View from above satellite
View from above satellite

Ground track
Ground track

The orbit data is extracted from the following two-line orbital elements,

1 20669U 90056C   17080.18181112 +.00001076 +00000-0 +33800-3 0  9993
2 20669 024.0875 123.7519 7119162 320.1542 005.0656 02.47922933225241
Epoch (UTC): 21 March 2017 04:21:48
Eccentricity: 0.7119162
inclination: 24.0875°
perigee height: 265 km
apogee height: 33098 km
right ascension of ascending node: 123.7519°
argument of perigee: 320.1542°
revolutions per day: 2.47922933
mean anomaly at epoch: 5.0656°
orbit number at epoch: 22524

The dashed part of the orbit path shows where the satellite is in the earth's shadow,  

DLR